星链-30289 (STARLINK-30289 )

导读

STARLINK-30289是美国SpaceX公司星链星座的卫星,于2023年8月17日发射升空。星链计划旨在构建全球卫星互联网星座,为全球提供高速低延迟互联网服务,该卫星的成功发射进一步扩充了星链星座的组网规模,推进了星座全球覆盖的部署进程。

Basic Information
目录编号:
57653
目录名称:
STARLINK-30289
国际标识:
2023-122X
轨道中心:
EARTH
卫星名称:
星链-30289
卫星全名:
星链-30289 (STARLINK-30289 )
卫星状态:
在轨 (已飞行1036 天)
发射日期:
2023-08-17 UTC
国别 :
美国 (US)
星等 :
--
Orbit Information
数据来源 国际轨道数据 AOE轨道数据
星历时间 2026-06-18T12:45:44+0800
9小时前
查看轨道信息
2026-06-16T06:00:00+0800
2天前
查看轨道信息
半长轴 6861.198km 6861.226km
偏心率 0.0001761 0.0004597
轨道倾角 43.001° 43.002°
近地点辐角 277.791° 318.320°
升交点赤经 234.227° 247.123°
平近点角 82.275° 78.954°
近地点 481.852km 479.934km
远地点 484.27km 486.244km
周期 94.267分钟 94.268分钟
每日圈数 15.275762 15.275669
Detailed Information
固有亮度:
5
最大亮度:
0.3
卫星平台:
Starlink v2.0 mini
覆盖范围:
全球
运营商:
太空探索技术公司
运营商所在国:
美国
制造商(研发单位):
太空探索技术公司
制造商所在国:
美国
使用方式:
暂无
Satellite Introduction
星链(Starlink)计划是由太空探索技术公司(SpaceX)提出的一个巨型低轨卫星互联网星座项目,计划在2019年至2024年间在太空搭建由约1.2万颗卫星组成的“星链”网络,其中1584颗将部署在地球上空550千米处的近地轨道,并从2020年开始工作。该卫星仍在工作。
2D Orbit Map
3D Orbit Map
Orbit Altitude Analysis Chart
Orbit Inclination Analysis Chart
Orbit Comprehensive Analysis Chart
View Comprehensive Chart